Time,TemperatureF,DewpointF,PressureIn,WindDirection,WindDirectionDegrees,WindSpeedMPH,WindSpeedGustMPH,Humidity,HourlyPrecipIn,Conditions,Clouds,dailyrainin,SoftwareType,DateUTC
2013-05-25 00:07:00,68.3,64.0,30.07,ENE,77,0.0,0.0,87,0.00,,,0.00,weatherlink.com 1.10,2013-05-25 05:07:00,
2013-05-25 00:22:00,68.3,64.0,30.07,East,90,0.0,0.0,87,0.00,,,0.00,weatherlink.com 1.10,2013-05-25 05:22:00,
2013-05-25 00:37:00,68.1,64.0,30.07,East,99,0.0,0.0,87,0.00,,,0.00,weatherlink.com 1.10,2013-05-25 05:37:00,
2013-05-25 00:52:00,68.1,64.0,30.07,East,80,0.0,0.0,87,0.00,,,0.00,weatherlink.com 1.10,2013-05-25 05:52:00,
2013-05-25 01:07:00,68.1,65.0,30.07,East,80,0.0,0.0,88,0.00,,,0.00,weatherlink.com 1.10,2013-05-25 06:07:00,
2013-05-25 01:22:00,68.3,65.0,30.07,East,79,0.0,0.0,89,0.00,,,0.00,weatherlink.com 1.10,2013-05-25 06:22:00,
2013-05-25 01:37:00,68.4,65.0,30.06,ENE,74,0.0,0.0,88,0.00,,,0.00,weatherlink.com 1.10,2013-05-25 06:37:00,
2013-05-25 01:52:00,68.3,65.0,30.06,ENE,70,0.0,0.0,88,0.00,,,0.00,weatherlink.com 1.10,2013-05-25 06:52:00,
2013-05-25 02:07:00,68.1,65.0,30.07,ENE,71,0.0,0.0,89,0.00,,,0.00,weatherlink.com 1.10,2013-05-25 07:07:00,
2013-05-25 02:22:00,68.1,65.0,30.07,ENE,71,0.0,0.0,89,0.00,,,0.00,weatherlink.com 1.10,2013-05-25 07:22:00,
2013-05-25 02:37:00,68.3,65.0,30.06,ENE,71,0.0,0.0,90,0.00,,,0.00,weatherlink.com 1.10,2013-05-25 07:37:00,
2013-05-25 02:52:00,68.4,66.0,30.05,ENE,71,0.0,0.0,91,0.00,,,0.00,weatherlink.com 1.10,2013-05-25 07:52:00,
2013-05-25 03:07:00,68.4,66.0,30.05,East,81,0.0,0.0,91,0.00,,,0.00,weatherlink.com 1.10,2013-05-25 08:07:00,
2013-05-25 03:22:00,68.6,66.0,30.05,East,90,0.0,0.0,92,0.00,,,0.00,weatherlink.com 1.10,2013-05-25 08:22:00,
2013-05-25 03:37:00,68.9,67.0,30.05,East,89,0.0,0.0,92,0.00,,,0.00,weatherlink.com 1.10,2013-05-25 08:37:00,
2013-05-25 03:53:00,69.3,67.0,30.05,East,93,0.0,0.0,92,0.00,,,0.00,weatherlink.com 1.10,2013-05-25 08:53:00,
2013-05-25 04:07:00,69.6,67.0,30.05,East,88,0.0,0.0,92,0.00,,,0.00,weatherlink.com 1.10,2013-05-25 09:07:00,
2013-05-25 04:22:00,69.6,67.0,30.04,East,88,0.0,0.0,92,0.00,,,0.00,weatherlink.com 1.10,2013-05-25 09:22:00,
2013-05-25 04:37:00,69.8,67.0,30.04,East,89,0.0,0.0,92,0.00,,,0.00,weatherlink.com 1.10,2013-05-25 09:37:00,
2013-05-25 04:52:00,69.9,68.0,30.04,East,89,0.0,0.0,93,0.00,,,0.00,weatherlink.com 1.10,2013-05-25 09:52:00,
2013-05-25 05:07:00,69.9,68.0,30.04,East,89,0.0,0.0,93,0.00,,,0.00,weatherlink.com 1.10,2013-05-25 10:07:00,
2013-05-25 05:22:00,70.3,68.0,30.04,East,90,0.0,0.0,93,0.00,,,0.00,weatherlink.com 1.10,2013-05-25 10:22:00,
2013-05-25 05:37:00,70.3,68.0,30.03,East,88,0.0,0.0,93,0.00,,,0.00,weatherlink.com 1.10,2013-05-25 10:37:00,
2013-05-25 05:52:00,70.3,68.0,30.03,East,88,0.0,0.0,93,0.00,,,0.00,weatherlink.com 1.10,2013-05-25 10:52:00,
2013-05-25 06:07:00,70.3,68.0,30.04,East,88,0.0,0.0,93,0.00,,,0.00,weatherlink.com 1.10,2013-05-25 11:07:00,
2013-05-25 06:22:00,70.4,68.0,30.05,East,88,0.0,0.0,93,0.00,,,0.00,weatherlink.com 1.10,2013-05-25 11:22:00,
2013-05-25 06:37:00,70.6,69.0,30.05,East,88,0.0,0.0,93,0.00,,,0.00,weatherlink.com 1.10,2013-05-25 11:37:00,
2013-05-25 06:52:00,70.4,68.0,30.04,East,88,0.0,0.0,93,0.00,,,0.00,weatherlink.com 1.10,2013-05-25 11:52:00,
2013-05-25 07:07:00,70.6,69.0,30.04,East,88,0.0,0.0,93,0.00,,,0.00,weatherlink.com 1.10,2013-05-25 12:07:00,
2013-05-25 07:22:00,70.6,69.0,30.05,East,88,0.0,0.0,94,0.00,,,0.00,weatherlink.com 1.10,2013-05-25 12:22:00,
2013-05-25 07:37:00,70.8,69.0,30.06,East,86,0.0,0.0,94,0.00,,,0.00,weatherlink.com 1.10,2013-05-25 12:37:00,
2013-05-25 07:52:00,70.8,69.0,30.07,East,93,0.0,0.0,94,0.00,,,0.00,weatherlink.com 1.10,2013-05-25 12:52:00,
2013-05-25 08:07:00,70.8,69.0,30.08,SSW,199,0.0,0.0,94,0.06,,,0.06,weatherlink.com 1.10,2013-05-25 13:07:00,
2013-05-25 08:22:00,70.1,68.0,30.08,SSE,160,0.0,0.0,94,0.10,,,0.10,weatherlink.com 1.10,2013-05-25 13:22:00,
2013-05-25 08:37:00,69.9,68.0,30.08,ESE,115,0.0,0.0,94,0.12,,,0.12,weatherlink.com 1.10,2013-05-25 13:37:00,
2013-05-25 08:52:00,68.6,67.0,30.07,ESE,111,0.0,0.0,93,0.12,,,0.12,weatherlink.com 1.10,2013-05-25 13:52:00,
2013-05-25 09:07:00,68.1,66.0,30.07,ESE,108,0.0,0.0,94,0.06,,,0.12,weatherlink.com 1.10,2013-05-25 14:07:00,
2013-05-25 09:22:00,68.4,67.0,30.08,East,99,0.0,0.0,94,0.02,,,0.12,weatherlink.com 1.10,2013-05-25 14:22:00,
2013-05-25 09:37:00,68.8,67.0,30.09,SE,124,0.0,0.0,94,0.00,,,0.12,weatherlink.com 1.10,2013-05-25 14:37:00,
2013-05-25 09:52:00,69.1,67.0,30.09,ESE,107,0.0,0.0,94,0.00,,,0.12,weatherlink.com 1.10,2013-05-25 14:52:00,
2013-05-25 10:07:00,69.6,68.0,30.09,ESE,107,0.0,0.0,94,0.00,,,0.12,weatherlink.com 1.10,2013-05-25 15:07:00,
2013-05-25 10:22:00,69.8,68.0,30.09,ESE,107,0.0,0.0,94,0.00,,,0.12,weatherlink.com 1.10,2013-05-25 15:22:00,
2013-05-25 10:37:00,70.8,69.0,30.08,ESE,120,0.0,0.0,93,0.00,,,0.12,weatherlink.com 1.10,2013-05-25 15:37:00,
2013-05-25 10:53:00,72.0,69.0,30.09,SSE,149,0.0,0.0,91,0.00,,,0.12,weatherlink.com 1.10,2013-05-25 15:53:00,
2013-05-25 11:08:00,73.0,69.0,30.08,South,183,0.0,0.0,88,0.00,,,0.12,weatherlink.com 1.10,2013-05-25 16:08:00,
2013-05-25 11:23:00,73.9,69.0,30.09,SE,146,0.0,0.0,85,0.00,,,0.12,weatherlink.com 1.10,2013-05-25 16:23:00,
2013-05-25 11:38:00,74.2,69.0,30.09,SE,142,0.0,0.0,83,0.00,,,0.12,weatherlink.com 1.10,2013-05-25 16:38:00,
2013-05-25 11:53:00,74.4,69.0,30.09,SSE,164,0.0,0.0,82,0.01,,,0.13,weatherlink.com 1.10,2013-05-25 16:53:00,
2013-05-25 12:08:00,73.0,67.0,30.10,SE,134,0.0,0.0,82,0.01,,,0.13,weatherlink.com 1.10,2013-05-25 17:08:00,
2013-05-25 12:23:00,72.1,66.0,30.09,ESE,117,0.0,0.0,80,0.01,,,0.13,weatherlink.com 1.10,2013-05-25 17:23:00,
2013-05-25 12:38:00,72.0,65.0,30.09,East,94,0.0,0.0,79,0.01,,,0.13,weatherlink.com 1.10,2013-05-25 17:38:00,
2013-05-25 12:53:00,71.8,65.0,30.09,SE,133,0.0,0.0,78,0.00,,,0.13,weatherlink.com 1.10,2013-05-25 17:53:00,
2013-05-25 13:08:00,72.0,66.0,30.09,SE,132,0.0,0.0,80,0.00,,,0.13,weatherlink.com 1.10,2013-05-25 18:08:00,
2013-05-25 13:23:00,72.8,66.0,30.09,SE,134,0.0,0.0,80,0.00,,,0.13,weatherlink.com 1.10,2013-05-25 18:23:00,
2013-05-25 13:38:00,74.6,68.0,30.09,ESE,120,0.0,0.0,80,0.00,,,0.13,weatherlink.com 1.10,2013-05-25 18:38:00,
2013-05-25 13:53:00,75.8,68.0,30.09,SSE,165,0.0,0.0,76,0.00,,,0.13,weatherlink.com 1.10,2013-05-25 18:53:00,
2013-05-25 14:08:00,76.5,67.0,30.08,South,171,0.0,0.0,73,0.00,,,0.13,weatherlink.com 1.10,2013-05-25 19:08:00,
2013-05-25 14:23:00,77.0,67.0,30.07,SSE,159,0.0,0.0,70,0.00,,,0.13,weatherlink.com 1.10,2013-05-25 19:23:00,
2013-05-25 14:38:00,77.0,67.0,30.05,South,186,0.0,0.0,71,0.00,,,0.13,weatherlink.com 1.10,2013-05-25 19:38:00,
2013-05-25 14:53:00,77.2,66.0,30.04,SE,133,0.0,0.0,69,0.00,,,0.13,weatherlink.com 1.10,2013-05-25 19:53:00,
2013-05-25 15:08:00,76.7,66.0,30.04,South,169,0.0,0.0,70,0.00,,,0.13,weatherlink.com 1.10,2013-05-25 20:08:00,
2013-05-25 15:23:00,77.0,67.0,30.04,ESE,115,0.0,0.0,71,0.00,,,0.13,weatherlink.com 1.10,2013-05-25 20:23:00,
2013-05-25 15:38:00,77.2,67.0,30.03,SSE,163,0.0,0.0,71,0.00,,,0.13,weatherlink.com 1.10,2013-05-25 20:38:00,
2013-05-25 15:53:00,78.6,66.0,30.03,South,175,0.0,0.0,66,0.00,,,0.13,weatherlink.com 1.10,2013-05-25 20:53:00,
2013-05-25 16:08:00,78.5,65.0,30.02,South,169,0.0,0.0,64,0.00,,,0.13,weatherlink.com 1.10,2013-05-25 21:08:00,
2013-05-25 16:23:00,78.5,66.0,30.01,SSE,160,0.0,0.0,65,0.00,,,0.13,weatherlink.com 1.10,2013-05-25 21:23:00,
2013-05-25 16:38:00,79.0,66.0,30.00,SSE,165,0.0,0.0,65,0.00,,,0.13,weatherlink.com 1.10,2013-05-25 21:38:00,
2013-05-25 16:53:00,79.0,67.0,30.01,SE,128,0.0,0.0,66,0.00,,,0.13,weatherlink.com 1.10,2013-05-25 21:53:00,
2013-05-25 17:08:00,79.0,67.0,30.00,SE,142,0.0,0.0,66,0.00,,,0.13,weatherlink.com 1.10,2013-05-25 22:08:00,
2013-05-25 17:23:00,79.2,66.0,30.00,SE,138,0.0,0.0,65,0.00,,,0.13,weatherlink.com 1.10,2013-05-25 22:23:00,
2013-05-25 17:38:00,79.2,66.0,29.99,SE,137,0.0,0.0,65,0.00,,,0.13,weatherlink.com 1.10,2013-05-25 22:38:00,
2013-05-25 17:53:00,79.6,67.0,29.99,SE,134,0.0,0.0,65,0.00,,,0.13,weatherlink.com 1.10,2013-05-25 22:53:00,
2013-05-25 18:08:00,79.6,67.0,29.98,South,176,0.0,0.0,66,0.00,,,0.13,weatherlink.com 1.10,2013-05-25 23:08:00,
2013-05-25 18:23:00,79.4,67.0,29.98,SSE,161,0.0,0.0,66,0.00,,,0.13,weatherlink.com 1.10,2013-05-25 23:23:00,
2013-05-25 18:38:00,77.9,67.0,29.98,SE,146,0.0,0.0,68,0.00,,,0.13,weatherlink.com 1.10,2013-05-25 23:38:00,
2013-05-25 18:53:00,76.3,67.0,29.99,SSE,154,0.0,0.0,72,0.00,,,0.13,weatherlink.com 1.10,2013-05-25 23:53:00,
2013-05-25 19:08:00,76.3,66.0,29.99,ESE,103,0.0,0.0,71,0.00,,,0.13,weatherlink.com 1.10,2013-05-26 00:08:00,
2013-05-25 19:23:00,77.2,66.0,29.98,SE,127,0.0,0.0,68,0.00,,,0.13,weatherlink.com 1.10,2013-05-26 00:23:00,
2013-05-25 19:38:00,77.0,65.0,29.98,SE,125,0.0,0.0,67,0.00,,,0.13,weatherlink.com 1.10,2013-05-26 00:38:00,
2013-05-25 19:53:00,76.5,66.0,29.98,ESE,113,0.0,0.0,69,0.00,,,0.13,weatherlink.com 1.10,2013-05-26 00:53:00,
2013-05-25 20:08:00,76.1,66.0,29.98,SE,130,0.0,0.0,72,0.00,,,0.13,weatherlink.com 1.10,2013-05-26 01:08:00,
2013-05-25 20:23:00,75.4,66.0,29.98,SE,131,0.0,0.0,73,0.00,,,0.13,weatherlink.com 1.10,2013-05-26 01:23:00,
2013-05-25 20:38:00,74.9,65.0,29.98,East,98,0.0,0.0,72,0.00,,,0.13,weatherlink.com 1.10,2013-05-26 01:38:00,
2013-05-25 20:53:00,74.4,65.0,29.98,ESE,112,0.0,0.0,72,0.00,,,0.13,weatherlink.com 1.10,2013-05-26 01:53:00,
2013-05-25 21:08:00,73.9,66.0,29.99,ESE,107,0.0,0.0,75,0.00,,,0.13,weatherlink.com 1.10,2013-05-26 02:08:00,
2013-05-25 21:23:00,73.3,65.0,29.99,SE,137,0.0,0.0,75,0.00,,,0.13,weatherlink.com 1.10,2013-05-26 02:23:00,
2013-05-25 21:38:00,73.0,65.0,30.00,ESE,114,0.0,0.0,76,0.00,,,0.13,weatherlink.com 1.10,2013-05-26 02:38:00,
2013-05-25 21:53:00,72.8,66.0,30.00,ESE,115,0.0,0.0,78,0.00,,,0.13,weatherlink.com 1.10,2013-05-26 02:53:00,
2013-05-25 22:08:00,72.8,66.0,30.01,East,96,0.0,0.0,79,0.00,,,0.13,weatherlink.com 1.10,2013-05-26 03:08:00,
2013-05-25 22:23:00,72.7,67.0,30.02,SE,137,0.0,0.0,81,0.00,,,0.13,weatherlink.com 1.10,2013-05-26 03:23:00,
2013-05-25 22:38:00,72.5,67.0,30.03,SE,124,0.0,0.0,82,0.00,,,0.13,weatherlink.com 1.10,2013-05-26 03:38:00,
2013-05-25 22:53:00,72.1,67.0,30.02,SE,125,0.0,0.0,84,0.00,,,0.13,weatherlink.com 1.10,2013-05-26 03:53:00,
2013-05-25 23:09:00,72.0,67.0,30.03,ESE,121,0.0,0.0,85,0.00,,,0.13,weatherlink.com 1.10,2013-05-26 04:09:00,
2013-05-25 23:24:00,71.8,68.0,30.03,ESE,111,0.0,0.0,86,0.00,,,0.13,weatherlink.com 1.10,2013-05-26 04:24:00,
2013-05-25 23:39:00,72.0,68.0,30.04,ESE,113,0.0,0.0,86,0.00,,,0.13,weatherlink.com 1.10,2013-05-26 04:39:00,
2013-05-25 23:54:00,72.1,68.0,30.04,SE,129,0.0,0.0,87,0.00,,,0.13,weatherlink.com 1.10,2013-05-26 04:54:00,